TimeMST,TemperatureF,Dew PointF,Humidity,Sea Level PressureIn,VisibilityMPH,Wind Direction,Wind SpeedMPH,Gust SpeedMPH,PrecipitationIn,Events,Conditions,WindDirDegrees,DateUTC
12:53 AM,44.1,39.9,85,30.12,10.0,South,17.3,25.3,0.00,Rain,Light Rain,190,2012-12-05 07:53:00
1:02 AM,44.6,39.2,81,30.11,10.0,South,17.3,-,0.00,,Overcast,180,2012-12-05 08:02:00
1:09 AM,44.6,39.2,81,30.10,10.0,South,17.3,-,0.00,,Overcast,190,2012-12-05 08:09:00
1:53 AM,44.1,39.9,85,30.09,6.0,South,16.1,-,0.00,Rain,Light Rain,190,2012-12-05 08:53:00
2:53 AM,45.0,39.9,82,30.08,10.0,South,16.1,23.0,0.00,,Overcast,180,2012-12-05 09:53:00
3:53 AM,45.0,39.9,82,30.05,10.0,SSW,13.8,21.9,0.01,,Overcast,200,2012-12-05 10:53:00
4:05 AM,46.4,39.2,76,30.05,10.0,SSW,15.0,23.0,N/A,,Overcast,200,2012-12-05 11:05:00
4:17 AM,46.4,39.2,76,30.05,10.0,South,15.0,24.2,N/A,,Overcast,190,2012-12-05 11:17:00
4:53 AM,46.0,41.0,83,30.03,10.0,South,15.0,-,N/A,,Overcast,190,2012-12-05 11:53:00
5:53 AM,46.0,41.0,83,30.01,10.0,SSW,15.0,-,0.00,,Overcast,200,2012-12-05 12:53:00
7:53 AM,45.0,39.9,82,30.01,5.0,SSW,19.6,-,0.01,Rain,Light Rain,200,2012-12-05 14:53:00
7:54 AM,44.6,39.2,81,30.02,2.0,SSW,20.7,-,0.00,Rain,Light Rain,200,2012-12-05 14:54:00
8:15 AM,44.6,41.0,87,30.02,5.0,SSW,16.1,25.3,0.01,Rain,Light Rain,210,2012-12-05 15:15:00
8:53 AM,45.0,41.0,86,30.01,4.0,SSW,20.7,-,0.01,Rain,Light Rain,210,2012-12-05 15:53:00
9:53 AM,45.0,41.0,86,30.01,9.0,SSW,27.6,34.5,0.00,,Overcast,210,2012-12-05 16:53:00
10:53 AM,46.0,41.0,83,30.00,9.0,SW,26.5,35.7,N/A,,Overcast,220,2012-12-05 17:53:00
11:53 AM,46.0,41.0,83,30.00,10.0,SSW,26.5,32.2,N/A,,Overcast,210,2012-12-05 18:53:00
12:53 PM,45.0,41.0,86,29.99,6.0,SSW,25.3,31.1,0.00,Rain,Light Rain,210,2012-12-05 19:53:00
1:53 PM,46.0,42.1,86,29.98,10.0,SW,20.7,29.9,0.00,,Overcast,220,2012-12-05 20:53:00
2:53 PM,46.9,42.1,83,29.96,10.0,SSW,27.6,34.5,N/A,,Overcast,210,2012-12-05 21:53:00
3:53 PM,48.0,41.0,77,29.98,10.0,SW,19.6,29.9,N/A,,Overcast,230,2012-12-05 22:53:00
4:53 PM,46.0,39.0,76,30.00,10.0,SSW,20.7,-,N/A,,Scattered Clouds,210,2012-12-05 23:53:00
5:53 PM,44.1,39.0,82,30.00,10.0,South,13.8,-,N/A,,Clear,190,2012-12-06 00:53:00
6:53 PM,44.1,37.9,79,30.01,10.0,SSW,20.7,26.5,N/A,,Clear,200,2012-12-06 01:53:00
7:53 PM,43.0,37.9,82,30.03,10.0,SW,11.5,-,N/A,,Overcast,220,2012-12-06 02:53:00
8:16 PM,42.8,37.4,81,30.04,10.0,SSW,13.8,20.7,N/A,,Partly Cloudy,210,2012-12-06 03:16:00
8:53 PM,41.0,37.0,86,30.04,10.0,SW,17.3,-,N/A,,Clear,220,2012-12-06 03:53:00
9:53 PM,39.9,36.0,86,30.04,10.0,SSW,13.8,-,N/A,,Clear,210,2012-12-06 04:53:00
10:53 PM,39.9,36.0,86,30.04,10.0,SW,12.7,-,N/A,,Scattered Clouds,230,2012-12-06 05:53:00
11:53 PM,37.9,35.1,89,30.05,10.0,SW,13.8,-,N/A,,Clear,220,2012-12-06 06:53:00